Погода в Вышегоре

Россия / Смоленская область     55°07′13″N   33°03′07″E
темп.,
°C
ветер,
м/с
пор.,
м/с
влажн.,
%
обл.,
%
осадки,
мм/ч
давл.,
гПа
погр.,
м
16 мая, вс
вс1600:00+11ююз3109799 0.0 1008333
03:00+10ююз3998100 0.0 1009237
06:00+11ююз31096100 0.5 1010307
09:00+15ююз478598 1.3 1011546
12:00+19юз356342 0.1 10111340
15:00+20юз345865 0.4 10111570
18:00+18ююз23765 0.9 1012607
21:00+14ююв2291100 1.3 101312
17 мая, пн
пн1700:00+13вюв119393 0.0 101210
03:00+12вюв249540 0.0 101383
06:00+12вюв2693100 0.0 1012140
09:00+17вюв3778100 0.0 1012339
12:00+22в5856100 0.0 10101114
15:00+24вюв695559 0.0 10081617
18:00+24вюв6116276 0.1 10061174
21:00+19вюв4137925 0.1 1006433
18 мая, вт
вт1800:00+17вюв4138314 0.1 1005501
03:00+16вюв41289100 0.4 1004372
06:00+16вюв41291100 0.0 1004403
09:00+20юв61478100 0.0 1003972
12:00+22ююв8146276 0.0 10041646
15:00+21ю6116298 0.1 10041488
18:00+20ююв5971100 0.1 10051181
21:00+16юв399178 1.9 1005266
19 мая, ср
ср1900:00+14юв2289100 0.1 100541
03:00+14в2391100 0.1 100464
06:00+14всв269693 0.8 1002187
09:00+17вюв6119097 2.8 1001714
12:00+19ююв7127048 0.8 10021339
15:00+21ююв5961100 1.5 10011576
18:00+18ююв3780100 1.8 1000722
21:00+14ююв269699 2.9 1001163
20 мая, чт
чт2000:00+12юв3998100 0.8 1002263
03:00+11юв3898100 0.8 1002247
06:00+11юв389842 0.0 1001322
09:00+13ю3587100 0.1 1001659
12:00+13ююз3582100 0.1 1002603
15:00+14ююз3580100 0.3 1002736
18:00+10з5992100 0.7 1005693
21:00+10з4993100 0.8 1007793